This demonstration page uses our WeatherBlox Daily Observations layout. Learn more.

Left ArrowRight Arrow

Hourly Observations for December 1, 2022

Temp ( °F °C ) Dew Point ( °F °C ) Humidity (%) Winds ( mph kmh ) Pressure ( in mb ) Visibility ( mi km ) Precip ( " mm )
12:15 am 00:15 Clear 37 3 23 -5 56 56 NW 12 19 30.12 1020 10 16 0.00 0.00
12:35 am 00:35 Clear 36 2 23 -5 60 60 NW 8 13 30.12 1020 10 16 0.00 0.00
12:55 am 00:55 Clear 36 2 23 -5 60 60 NW 10 17 30.13 1020 10 16 0.00 0.00
1:15 am 01:15 Clear 36 2 23 -5 60 60 WNW 13 20 30.14 1021 10 16 0.00 0.00
1:35 am 01:35 Clear 36 2 23 -5 60 60 WNW 9 15 30.15 1021 10 16 0.00 0.00
1:55 am 01:55 Clear 36 2 23 -5 60 60 WNW 13 20 30.16 1021 10 16 0.00 0.00
2:15 am 02:15 Clear 37 3 21 -6 52 52 WNW 16 26 30.17 1022 10 16 0.00 0.00
2:35 am 02:35 Clear 37 3 23 -5 56 56 WNW 20 31 30.18 1022 10 16 0.00 0.00
2:55 am 02:55 Clear 37 3 23 -5 56 56 WNW 17 28 30.19 1022 10 16 0.00 0.00
3:15 am 03:15 Clear 36 2 23 -5 60 60 NW 29 46 30.20 1023 10 16 0.00 0.00
3:35 am 03:35 Clear 36 2 21 -6 55 55 NW 24 39 30.21 1023 10 16 0.00 0.00
3:55 am 03:55 Clear 36 2 21 -6 55 55 WNW 24 39 30.22 1023 10 16 0.00 0.00
4:15 am 04:15 Clear 36 2 21 -6 55 55 WNW 25 41 30.22 1023 10 16 0.00 0.00
4:35 am 04:35 Clear 36 2 21 -6 55 55 WNW 15 24 30.24 1024 10 16 0.00 0.00
4:55 am 04:55 Clear 34 1 21 -6 59 59 NW 18 30 30.26 1025 10 16 0.00 0.00
5:15 am 05:15 Clear 34 1 21 -6 59 59 NW 20 31 30.26 1025 10 16 0.00 0.00
5:35 am 05:35 Clear 34 1 21 -6 59 59 WNW 18 30 30.28 1025 10 16 0.00 0.00
5:55 am 05:55 Clear 34 1 21 -6 59 59 WNW 22 35 30.29 1026 10 16 0.00 0.00
6:15 am 06:15 Clear 34 1 21 -6 59 59 NW 24 39 30.29 1026 10 16 0.00 0.00
6:35 am 06:35 Clear 34 1 21 -6 59 59 WNW 21 33 30.31 1026 10 16 0.00 0.00
6:55 am 06:55 Clear 34 1 21 -6 59 59 NW 17 28 30.33 1027 10 16 0.00 0.00
7:15 am 07:15 Sunny 32 0 21 -6 64 64 WNW 14 22 30.35 1028 10 16 0.00 0.00
7:35 am 07:35 Sunny 32 0 21 -6 64 64 WNW 14 22 30.37 1029 10 16 0.00 0.00
7:55 am 07:55 Sunny 34 1 21 -6 59 59 WNW 13 20 30.38 1029 10 16 0.00 0.00
8:15 am 08:15 Sunny 34 1 21 -6 59 59 NW 14 22 30.39 1029 10 16 0.00 0.00
8:35 am 08:35 Sunny 36 2 21 -6 55 55 NNW 7 11 30.41 1030 10 16 0.00 0.00
8:55 am 08:55 Sunny 36 2 21 -6 55 55 NNW 10 17 30.42 1030 10 16 0.00 0.00
9:15 am 09:15 Sunny 36 2 23 -5 60 60 NW 7 11 30.43 1030 10 16 0.00 0.00
9:35 am 09:35 Partly Cloudy 36 2 23 -5 60 60 NW 12 19 30.44 1031 10 16 0.00 0.00
9:55 am 09:55 Partly Cloudy 37 3 21 -6 52 52 NW 17 28 30.45 1031 10 16 0.00 0.00
10:35 am 10:35 Sunny 37 3 21 -6 52 52 NW 12 19 30.45 1031 10 16 0.00 0.00
10:55 am 10:55 Sunny 39 4 23 -5 52 52 NW 13 20 30.46 1031 10 16 0.00 0.00
11:15 am 11:15 Sunny 41 5 23 -5 48 48 NW 16 26 30.46 1032 10 16 0.00 0.00
11:35 am 11:35 Sunny 41 5 23 -5 48 48 WNW 12 19 30.46 1032 10 16 0.00 0.00
12:15 pm 12:15 Sunny 41 5 23 -5 48 48 W 8 13 30.46 1032 10 16 0.00 0.00
12:35 pm 12:35 Sunny 41 5 23 -5 48 48 WNW 8 13 30.46 1032 10 16 0.00 0.00
12:55 pm 12:55 Sunny 43 6 23 -5 45 45 WNW 13 20 30.46 1032 10 16 0.00 0.00
1:15 pm 13:15 Sunny 43 6 23 -5 45 45 NW 12 19 30.46 1032 10 16 0.00 0.00
1:35 pm 13:35 Sunny 43 6 23 -5 45 45 W 7 11 30.46 1032 10 16 0.00 0.00
1:55 pm 13:55 Sunny 43 6 21 -6 42 42 NW 10 17 30.46 1032 10 16 0.00 0.00
2:15 pm 14:15 Sunny 45 7 23 -5 42 42 WNW 16 26 30.45 1031 10 16 0.00 0.00
2:35 pm 14:35 Sunny 45 7 21 -6 39 39 NW 9 15 30.46 1031 10 16 0.00 0.00
2:55 pm 14:55 Sunny 45 7 21 -6 39 39 NNW 15 24 30.45 1031 10 16 0.00 0.00
3:15 pm 15:15 Sunny 45 7 21 -6 39 39 NW 10 17 30.47 1032 10 16 0.00 0.00
3:35 pm 15:35 Sunny 43 6 21 -6 42 42 NW 13 20 30.47 1032 10 16 0.00 0.00
3:55 pm 15:55 Sunny 43 6 21 -6 42 42 NW 10 17 30.47 1032 10 16 0.00 0.00
4:15 pm 16:15 Sunny 41 5 19 -7 41 41 NNW 9 15 30.50 1033 10 16 0.00 0.00
4:35 pm 16:35 Sunny 41 5 21 -6 45 45 NW 12 19 30.50 1033 10 16 0.00 0.00
4:55 pm 16:55 Clear 37 3 21 -6 52 52 NW 6 9 30.50 1033 10 16 0.00 0.00
5:15 pm 17:15 Clear 39 4 21 -6 48 48 N 6 9 30.50 1033 10 16 0.00 0.00
5:35 pm 17:35 Clear 39 4 19 -7 44 44 N 8 13 30.49 1032 10 16 0.00 0.00
5:55 pm 17:55 Clear 39 4 21 -6 48 48 N 7 11 30.50 1033 10 16 0.00 0.00
6:15 pm 18:15 Clear 37 3 21 -6 52 52 NNW 3 6 30.50 1033 10 16 0.00 0.00
6:35 pm 18:35 Clear 36 2 21 -6 55 55 NNW 7 11 30.50 1033 10 16 0.00 0.00
6:55 pm 18:55 Clear 37 3 21 -6 52 52 NNW 6 9 30.51 1033 10 16 0.00 0.00
7:15 pm 19:15 Clear 36 2 21 -6 55 55 N 5 7 30.52 1033 10 16 0.00 0.00
7:35 pm 19:35 Clear 37 3 21 -6 52 52 N 6 9 30.51 1033 10 16 0.00 0.00
7:55 pm 19:55 Clear 37 3 21 -6 52 52 N 3 6 30.51 1033 10 16 0.00 0.00
8:15 pm 20:15 Clear 37 3 21 -6 52 52 NNE 3 6 30.52 1033 10 16 0.00 0.00
8:35 pm 20:35 Clear 36 2 21 -6 55 55 NNE 5 7 30.52 1033 10 16 0.00 0.00
8:55 pm 20:55 Clear 36 2 21 -6 55 55 Calm 30.52 1033 10 16 0.00 0.00
9:15 pm 21:15 Clear 34 1 23 -5 64 64 Calm 30.53 1034 10 16 0.00 0.00
9:35 pm 21:35 Clear 34 1 23 -5 64 64 Calm 30.53 1034 10 16 0.00 0.00
9:55 pm 21:55 Clear 32 0 25 -4 74 74 Calm 30.53 1034 10 16 0.00 0.00
10:15 pm 22:15 Clear 34 1 23 -5 64 64 Calm 30.53 1034 10 16 0.00 0.00
10:35 pm 22:35 Clear 32 0 25 -4 74 74 Calm 30.53 1034 10 16 0.00 0.00
10:55 pm 22:55 Clear 32 0 27 -3 80 80 N 3 6 30.54 1034 10 16 0.00 0.00
11:15 pm 23:15 Clear 32 0 27 -3 80 80 Calm 30.55 1035 10 16 0.00 0.00
11:35 pm 23:35 Clear 32 0 27 -3 80 80 Calm 30.55 1035 10 16 0.00 0.00
11:55 pm 23:55 Clear 30 -1 27 -3 86 86 Calm 30.55 1035 10 16 0.00 0.00

Powered by AerisWeather